Home > Weather > Wichita > Past weeks

Flag for USA Past Weather in Wichita, Kansas, USA — Yesterday and Last 2 Weeks

Now
77 °F

Passing clouds.


Feels Like: 79 °F
Forecast: 75 / 93 °F
Wind: 13 mph from South

Location: Wichita Mid-Continent Airport

Current Time: Jun 25, 2016 at 4:00:04 AM

Latest Report: Jun 25, 2016 at 2:53 AM


Visibility: 10 mi

Pressure: 29.88 "Hg

Humidity: 74%

Dew Point: 68 °F

Location of WichitaLocation

Past Weather in Wichita — Graph

°F

Wichita Temperature Yesterday

Maximum temperature yesterday: 93 °F (at 5:53 PM)
Minimum temperature yesterday: 74 °F (at 6:53 AM)
Average temperature yesterday: 81 °F

High & Low Weather Summary for the Past Weeks

 TemperatureHumidityPressure
High102 °F (Jun 15, 2:53 PM)91% (Jun 13, 7:53 AM)30.17 "Hg (Jun 13, 7:53 AM)
Low69 °F (Jun 18, 1:53 AM)30% (Jun 21, 5:53 PM)29.67 "Hg (Jun 14, 6:53 PM)
Average83 °F64%29.91 "Hg
* Reported Jun 10 2:53 AM — Jun 25 2:53 AM, Wichita, Weather by CustomWeather, © 2016

Note: Actual official high and low records may vary slightly from our data, if they occured in-between our weather recording intervals... More about our weather records

Advertising

Wichita Weather History for the Previous 24 Hours

Scroll right to see more
 ConditionsComfort  
Time TempWeatherWind HumidityBarometerVisibility
2:53 AM
Sat, Jun 25
77 °FPassing clouds.13 mph74%29.88 "Hg10 mi
1:53 AM78 °FPassing clouds.10 mph71%29.90 "Hg10 mi
12:53 AM79 °FPassing clouds.13 mph72%29.90 "Hg10 mi
11:53 PM
Fri, Jun 24
82 °FClear.13 mph63%29.90 "Hg10 mi
10:53 PM83 °FClear.16 mph61%29.89 "Hg10 mi
9:53 PM84 °FSunny.15 mph63%29.88 "Hg10 mi
8:53 PM86 °FScattered clouds.15 mph59%29.86 "Hg10 mi
7:53 PM89 °FPassing clouds.16 mph55%29.84 "Hg10 mi
6:53 PM91 °FPassing clouds.17 mph52%29.83 "Hg10 mi
5:53 PM93 °FScattered clouds.18 mph49%29.85 "Hg10 mi
4:53 PM91 °FScattered clouds.14 mph60%29.87 "Hg10 mi
3:53 PM89 °FScattered clouds.15 mph61%29.90 "Hg10 mi
2:53 PM87 °FScattered clouds.18 mph63%29.92 "Hg10 mi
1:53 PM84 °FScattered clouds.12 mph70%29.94 "Hg10 mi
12:53 PM83 °FBroken clouds.14 mph70%29.94 "Hg10 mi
11:53 AM80 °FCloudy.9 mph76%29.95 "Hg10 mi
10:53 AM78 °FLight rain. Mostly cloudy.6 mph79%29.94 "Hg10 mi
9:53 AM76 °FLight rain. Cloudy.5 mph82%29.96 "Hg10 mi
8:53 AM74 °FRain. Cloudy.13 mph82%29.95 "Hg6 mi
7:53 AM76 °FCloudy.6 mph82%29.92 "Hg10 mi
6:53 AM74 °FOvercast.9 mph82%29.93 "Hg10 mi
5:53 AM75 °FThunderstorms. Mostly cloudy.14 mph76%29.95 "Hg10 mi
4:53 AM75 °FPartly cloudy.12 mph79%29.93 "Hg10 mi
Weather by CustomWeather, © 2016

See weather overviewHow to use our weather pages